Weather History for Jackson, MI

Change the Weather History Date:

Friday, January 31, 2014

  Actual Average Record
Temperature  
Mean Temperature 28 °F 24 °F  
Max Temperature 31 °F 31 °F 60 °F (1989)
Min Temperature 24 °F 16 °F -9 °F (1971)
Degree Days  
Heating Degree Days 37 41  
Month to date heating degree days 1547 1286  
Since 1 July heating degree days 4227 3831  
Cooling Degree Days 0 0  
Month to date cooling degree days 0 0  
Year to date cooling degree days 0 0  
Moisture  
Dew Point 21 °F    
Average Humidity 75    
Maximum Humidity 81    
Minimum Humidity 68    
Precipitation  
Precipitation T in 0.04 in 0.21 in (1988)
Month to date precipitation 1.90 1.49  
Year to date precipitation 1.90 1.49  
Sea Level Pressure  
Sea Level Pressure 30.04 in    
Wind  
Wind Speed 6 mph (West)    
Max Wind Speed 15 mph    
Max Gust Speed 20 mph    
Visibility 9 miles    
Events Snow    
T = Trace of Precipitation, MM = Missing Value Source: NWS Daily Summary

Daily Weather History Graph

Daily Weather History Graph

Search for Another Location

Airport:

Trip Planner

Search our weather history database for the weather conditions in past years. The results will help you decide how hot, cold, wet, or windy it might be!

Date:

Astronomy

Jan. 31, 2014 Rise Set
Actual Time 7:52 AM EST 5:50 PM EST
Civil Twilight 7:22 AM EST 6:20 PM EST
Nautical Twilight 6:48 AM EST 6:54 PM EST
Astronomical Twilight 6:15 AM EST 7:27 PM EST
Moon 7:59 AM EST (1/31) 7:16 PM EST (1/31)
Length of Visible Light 10h 58m
Length of Day
9h 58m
New Moon, 1% of the Moon is Illuminated
Jan 31
New Moon
Feb 6
First Quarter
Feb 14
Full
Feb 22
Last Quarter
Mar 1
New

Hourly Weather History & Observations

Time (EST) Temp. Windchill Dew Point Humidity Pressure Visibility Wind Dir Wind Speed Gust Speed Precip Events Conditions
12:56 AM 30.0 °F 20.0 °F 23.0 °F 75% 29.86 in 10.0 mi WSW 12.7 mph - N/A   Overcast
1:56 AM 30.0 °F 20.5 °F 23.0 °F 75% 29.87 in 10.0 mi West 11.5 mph - N/A   Overcast
2:18 AM 30.9 °F 24.3 °F 23.0 °F 72% 29.84 in 10.0 mi West 6.9 mph - N/A   Overcast
2:56 AM 30.9 °F 24.3 °F 24.1 °F 76% 29.90 in 10.0 mi West 6.9 mph - N/A   Overcast
3:19 AM 30.9 °F 25.2 °F 25.0 °F 79% 29.86 in 10.0 mi WSW 5.8 mph - N/A   Overcast
3:56 AM 30.9 °F 24.3 °F 25.0 °F 79% 29.91 in 10.0 mi WSW 6.9 mph - N/A   Overcast
4:56 AM 30.9 °F 24.3 °F 25.0 °F 79% 29.94 in 9.0 mi WSW 6.9 mph - N/A   Overcast
5:56 AM 30.9 °F 25.2 °F 25.0 °F 79% 29.96 in 9.0 mi West 5.8 mph - N/A   Overcast
6:47 AM 30.0 °F 25.2 °F 24.1 °F 79% 29.94 in 10.0 mi West 4.6 mph - N/A   Overcast
6:56 AM 30.0 °F 24.1 °F 24.1 °F 79% 29.99 in 10.0 mi NW 5.8 mph - N/A   Mostly Cloudy
7:56 AM 28.0 °F 22.8 °F 21.9 °F 78% 30.03 in 10.0 mi NW 4.6 mph - N/A   Clear
8:32 AM 27.0 °F 20.5 °F 21.9 °F 81% 30.01 in 9.0 mi WNW 5.8 mph - N/A   Mostly Cloudy
8:56 AM 27.0 °F 18.7 °F 21.0 °F 78% 30.06 in 10.0 mi WNW 8.1 mph - N/A   Overcast
9:56 AM 27.0 °F 19.5 °F 19.9 °F 75% 30.09 in 10.0 mi NW 6.9 mph - N/A   Overcast
10:31 AM 27.0 °F 21.6 °F 21.0 °F 78% 30.06 in 10.0 mi NW 4.6 mph - N/A   Overcast
10:56 AM 27.0 °F 23.0 °F 21.0 °F 78% 30.11 in 10.0 mi WNW 3.5 mph - N/A   Overcast
11:26 AM 27.0 °F 21.6 °F 21.0 °F 78% 30.06 in 10.0 mi West 4.6 mph - N/A   Overcast
11:56 AM 28.0 °F 20.0 °F 21.0 °F 75% 30.10 in 10.0 mi West 8.1 mph - N/A   Overcast
12:56 PM 28.0 °F 22.8 °F 19.9 °F 72% 30.10 in 10.0 mi West 4.6 mph - N/A   Scattered Clouds
1:56 PM 28.0 °F 20.0 °F 19.9 °F 72% 30.11 in 10.0 mi West 8.1 mph - N/A   Clear
2:56 PM 28.0 °F 21.7 °F 19.0 °F 69% 30.10 in 10.0 mi West 5.8 mph - N/A   Scattered Clouds
3:56 PM 28.0 °F 20.0 °F 19.0 °F 69% 30.11 in 10.0 mi SW 8.1 mph - N/A   Mostly Cloudy
4:56 PM 27.0 °F 19.5 °F 17.1 °F 66% 30.12 in 10.0 mi WSW 6.9 mph - N/A   Overcast
5:56 PM 26.1 °F 20.5 °F 17.1 °F 69% 30.13 in 10.0 mi West 4.6 mph - N/A   Overcast
6:56 PM 26.1 °F - 16.0 °F 66% 30.14 in 10.0 mi Calm Calm - N/A   Overcast
7:56 PM 25.0 °F 20.7 °F 17.1 °F 72% 30.14 in 10.0 mi SW 3.5 mph - N/A   Overcast
8:56 PM 25.0 °F 20.7 °F 17.1 °F 72% 30.15 in 10.0 mi SSW 3.5 mph - N/A   Overcast
9:56 PM 25.0 °F 20.7 °F 17.1 °F 72% 30.14 in 10.0 mi South 3.5 mph - N/A   Overcast
10:56 PM 25.0 °F 18.1 °F 18.0 °F 75% 30.14 in 10.0 mi SSW 5.8 mph - N/A   Overcast
11:30 PM 24.1 °F 18.2 °F 19.9 °F 84% 30.10 in 2.5 mi South 4.6 mph - 0.00 in Snow Light Snow
11:56 PM 24.1 °F 19.7 °F 21.0 °F 88% 30.14 in 2.0 mi South 3.5 mph - 0.00 in Snow Light Snow